Carlsbad, CA

1:30 PM PDT on April 28, 2017 (GMT -0700)
McClellan-Palomar

Weather History for KCRQ - November, 2011

Change the Weather History Date:

Wednesday, November 9, 2011

  Actual Average Record
Temperature  
Mean Temperature 60 °F -  
Max Temperature 71 °F 64 °F 93 °F (2016)
Min Temperature 48 °F 50 °F 46 °F (2013)
Degree Days  
Heating Degree Days 6    
Growing Degree Days 10 (Base 50)    
Moisture  
Dew Point 28 °F    
Average Humidity 31    
Maximum Humidity 48    
Minimum Humidity 17    
Precipitation  
Precipitation 0.00 in - - ()
Sea Level Pressure  
Sea Level Pressure 30.16 in    
Wind  
Wind Speed 2 mph (North)    
Max Wind Speed 9 mph    
Max Gust Speed -    
Visibility 10 miles    
Events      
Averages and records for this station are not official NWS values.
T = Trace of Precipitation, MM = Missing Value Source: NWS Daily Summary

Daily Weather History Graph

Daily Weather History Graph

Search for Another Location

Airport or City:

Trip Planner

Search our weather history database for the weather conditions in past years. The results will help you decide how hot, cold, wet, or windy it might be!

Date:

Astronomy

Nov. 09, 2011 Rise Set
Actual Time 6:14 AM PST 4:51 PM PST
Civil Twilight 5:48 AM PST 5:17 PM PST
Nautical Twilight 5:18 AM PST 5:46 PM PST
Astronomical Twilight 4:49 AM PST 6:15 PM PST
Moon 4:06 PM PST (11/9) 5:14 AM PST (11/9)
Length of Visible Light 11h 28m
Length of Day
10h 36m
Waxing Gibbous, 99% of the Moon is Illuminated
Nov 9
Waxing Gibbous
Nov 10
Full
Nov 18
Last Quarter
Nov 24
New
Dec 2
First Quarter

Hourly Weather History & Observations

Time (PST) Temp. Dew Point Humidity Pressure Visibility Wind Dir Wind Speed Gust Speed Precip Events Conditions
12:53 AM 51.1 °F 30.0 °F 44% 30.19 in 10.0 mi Calm Calm - N/A   Clear
1:53 AM 50.0 °F 28.9 °F 44% 30.17 in 10.0 mi NNE 3.5 mph - N/A   Clear
2:53 AM 48.9 °F 30.0 °F 48% 30.15 in 10.0 mi Calm Calm - N/A   Clear
3:53 AM 53.1 °F 26.1 °F 35% 30.17 in 10.0 mi Calm Calm - N/A   Clear
4:53 AM 53.1 °F 27.0 °F 37% 30.17 in 10.0 mi Calm Calm - N/A   Clear
5:53 AM 50.0 °F 26.6 °F 40% 30.19 in 10.0 mi NE 3.5 mph - N/A   Clear
6:53 AM 50.0 °F 28.0 °F 43% 30.21 in 10.0 mi Calm Calm - N/A   Clear
7:53 AM 59.0 °F 26.1 °F 28% 30.22 in 10.0 mi NNE 5.8 mph - N/A   Clear
8:53 AM 64.0 °F 28.0 °F 26% 30.23 in 10.0 mi North 3.5 mph - N/A   Clear
9:53 AM 69.1 °F 21.9 °F 17% 30.22 in 10.0 mi North 3.5 mph - N/A   Clear
10:53 AM 70.0 °F 23.0 °F 17% 30.18 in 10.0 mi Calm Calm - N/A   Clear
11:53 AM 70.0 °F 24.1 °F 18% 30.15 in 10.0 mi SW 9.2 mph - N/A   Clear
12:53 PM 71.1 °F 27.0 °F 19% 30.13 in 10.0 mi WSW 6.9 mph - N/A   Clear
1:53 PM 66.9 °F 41.0 °F 39% 30.12 in 10.0 mi WNW 8.1 mph - N/A   Clear
2:53 PM 68.0 °F 33.1 °F 27% 30.11 in 10.0 mi Variable 3.5 mph - N/A   Clear
3:53 PM 68.0 °F 35.1 °F 30% 30.10 in 10.0 mi WNW 3.5 mph - N/A   Clear
4:53 PM 66.0 °F 27.0 °F 23% 30.11 in 10.0 mi Calm Calm - N/A   Clear
5:53 PM 62.1 °F 33.1 °F 34% 30.11 in 10.0 mi Calm Calm - N/A   Clear
6:53 PM 60.1 °F 34.0 °F 38% 30.13 in 10.0 mi Calm Calm - N/A   Clear
7:53 PM 57.0 °F 32.0 °F 39% 30.15 in 10.0 mi Calm Calm - N/A   Clear
8:53 PM 55.0 °F 28.9 °F 37% 30.16 in 10.0 mi Calm Calm - N/A   Clear
9:53 PM 57.9 °F 21.9 °F 25% 30.16 in 10.0 mi NE 4.6 mph - N/A   Clear
10:53 PM 57.9 °F 21.0 °F 24% 30.17 in 10.0 mi ENE 4.6 mph - N/A   Clear
11:53 PM 60.1 °F 19.0 °F 20% 30.15 in 10.0 mi NE 4.6 mph - N/A   Clear